Flag Weather past 2 weeks in Huambo, Angola

Now
81 °F

Broken clouds.


Feels Like: 85 °F
Forecast: 60 / 83 °F
Wind: 12 mph from West

Location: Luanda Airport

Current Time: Oct 30, 2014 at 2:14:43 PM

Latest Report: Oct 30, 2014 at 2:00 PM


Visibility: N/A

Pressure: 29.80 "Hg

Humidity: 74%

Dew point: 72 °F

Location of HuamboLocation

Historic Weather in Huambo — Graph

°F

Huambo temperature yesterday

Maximum temperature yesterday: 86 °F (at 2:00 PM)
Minimum temperature yesterday: 75 °F (at 12:00 AM)
Average temperature yesterday: 79 °F

Past Weeks' High & Low Weather Summary

 TemperatureHumidityPressure
High86 °F (Oct 27, 11:00 AM)94% (Oct 24, 5:00 AM)30.01 "Hg (Oct 24, 5:00 AM)
Low72 °F (Oct 17, 12:00 AM)58% (Oct 19, 1:00 PM)29.77 "Hg (Oct 29, 3:00 PM)
Average78 °F77%29.91 "Hg
* Reported Oct 15 1:00 PM — Oct 30 1:00 PM, Huambo, Weather by CustomWeather, © 2014

Note: Actual official high and low records may vary slightly from our data, if they occured in-between our weather recording intervals... More about our weather records

Advertising

Huambo weather history for previous 24 hours

 ConditionsComfort  
Time TempWeatherWind HumidityBarometerVisibility
1:00 PM
Oct 30
82 °FBroken clouds.9 mph70%29.83 "HgN/A
12:00 PM82 °FBroken clouds.8 mph70%29.83 "HgN/A
11:00 AM81 °FBroken clouds.9 mph74%29.86 "HgN/A
10:00 AM81 °FBroken clouds.8 mph74%29.86 "HgN/A
9:00 AM79 °FBroken clouds.5 mph79%29.89 "HgN/A
8:00 AM79 °FBroken clouds.7 mph79%29.89 "HgN/A
7:00 AM77 °FMostly cloudy.9 mph83%29.89 "HgN/A
6:00 AM77 °FMostly cloudy.6 mph83%29.89 "HgN/A
5:00 AM77 °FPassing clouds.8 mph83%29.86 "HgN/A
4:00 AM77 °FPassing clouds.9 mph83%29.86 "Hg5 mi
3:00 AM77 °FPassing clouds.9 mph83%29.86 "Hg5 mi
2:00 AM77 °FPassing clouds.9 mph83%29.86 "HgN/A
1:00 AM77 °FPassing clouds.7 mph83%29.86 "HgN/A
12:00 AM77 °FPassing clouds.10 mph79%29.86 "HgN/A
11:00 PM
Oct 29
77 °FPartly cloudy.8 mph83%29.92 "HgN/A
10:00 PM79 °FPassing clouds.5 mph79%29.89 "HgN/A
9:00 PM79 °FPassing clouds.7 mph74%29.86 "HgN/A
8:00 PM79 °FPassing clouds.7 mph79%29.83 "HgN/A
7:00 PM77 °FPassing clouds.9 mph83%29.83 "HgN/A
6:00 PM79 °FPartly sunny.9 mph79%29.80 "HgN/A
5:00 PM79 °FScattered clouds.14 mph79%29.77 "HgN/A
4:00 PM82 °FScattered clouds.12 mph74%29.77 "HgN/A
3:00 PM82 °FScattered clouds.14 mph74%29.77 "HgN/A
2:00 PM86 °FPartly sunny.14 mph62%29.80 "HgN/A
Weather by CustomWeather, © 2014

See weather overviewHow to use our weather pages